OneWeb SL0650

operational
NORAD ID: 55813 Int'l Des: 2023-029 Owner: ONEWEBN Country: UK Constellation: oneweb
LEOCIRCULARPOLARONEWEB_TYPE

Über OneWeb SL0650

Beschreibung wird geladen...

Live-Position

3D-Globus wird geladen...

Nächste Überflüge

Höhenverlauf

Altitude vs Time

uPlot chart will show altitude changes over time

Zweizeiliger Elementsatz

1 55813U 23029T 25353.24028837 .00000077 00000-0 15942-3 0 9998
2 55813 87.9198 340.7861 0001885 70.8210 289.3127 13.19724733135163
Epoch: 19. Dez. 2025 • Age: 13 hours

Aktueller Status

Höhe 1204.0 km
Geschwindigkeit 7.25 km/s
Subsatellitenpunkt -45.70°S, 24.14°W
Startdatum 9. März 2023
Alter 2.7 years
Typ internet

Technische Details

Klassifizierung Payload
Masse 148.00 kg
Trockenmasse 140.00 kg
Gesamtmasse 148.00 kg
Länge 1.30 m
Durchmesser 1.00 m
Spannweite 5.00 m
Form Trapezoid+2 pan
Hersteller ONEWUS
Bus-Typ ARROW
Phasenstatus In Orbit
Besitzer/Staat ONEWEBN/UK

Große Konstellationen

Loading constellations...